sat.trackr.live / text

‹ back to catalog

STARLINK-6252

NORAD 56555 · 2023-065BE

PAYLOAD ACTIVE UNKNOWN

§ Identity

Operator
Country
US
Launch date
2023-05-14
Launch site
AFETR
Launch vehicle
Mass (kg)
RCS (m²)

Purposes: comms

External: N2YO · Heavens-Above · Gunter

§ Orbital elements

Epoch: 2026-09-20T12:38:44.266272Z

Period
94.27 min
Inclination
43.0001°
Eccentricity
0.0000635
Mean motion
15.27576079 rev/d
Perigee alt
482.6 km
Apogee alt
483.5 km
Semi-major
6,861.2 km
B*
3.0812e-6
RAAN
202.9307°
Arg perigee
234.9581°
Mean anomaly
125.1211°
Rev number
18,627

§ Raw data

STARLINK-62521 56555U 23065BE  26263.52690123 -.00000177  00000+0  30812-5 0  99932 56555  43.0001 202.9307 0000635 234.9581 125.1211 15.27576079186271

JSON: /api/v1/satellites/56555 · /tle

For live sub-satellite position, see the globe view (requires WebGL).

§ Visibility from observer

Set your observer location to see the next 7 days of passes ≥ 10°. The values pass through the URL so the page stays shareable.

No JS? Fill the form by hand. The geolocation button needs JavaScript.